TimeEST,TemperatureF,Dew PointF,Humidity,Sea Level PressureIn,VisibilityMPH,Wind Direction,Wind SpeedMPH,Gust SpeedMPH,PrecipitationIn,Events,Conditions,WindDirDegrees,DateUTC
12:15 AM,50.0,48.2,94,30.03,10.0,South,4.6,-,N/A,,Clear,190,2013-02-06 05:15:00
12:35 AM,48.2,46.4,93,30.04,10.0,Calm,Calm,-,N/A,,Clear,0,2013-02-06 05:35:00
12:55 AM,50.0,48.2,94,30.04,10.0,SSW,4.6,-,N/A,,Clear,200,2013-02-06 05:55:00
1:15 AM,51.8,48.2,88,30.04,10.0,Calm,Calm,-,N/A,,Clear,0,2013-02-06 06:15:00
1:35 AM,48.2,46.4,93,30.04,10.0,Calm,Calm,-,N/A,,Clear,0,2013-02-06 06:35:00
1:55 AM,48.2,46.4,93,30.04,10.0,Calm,Calm,-,N/A,,Clear,0,2013-02-06 06:55:00
2:15 AM,48.2,46.4,93,30.04,10.0,Calm,Calm,-,N/A,,Scattered Clouds,0,2013-02-06 07:15:00
2:35 AM,44.6,44.6,100,30.04,10.0,Calm,Calm,-,N/A,,Scattered Clouds,0,2013-02-06 07:35:00
2:55 AM,44.6,44.6,100,30.04,10.0,Calm,Calm,-,N/A,,Mostly Cloudy,0,2013-02-06 07:55:00
3:15 AM,46.4,46.4,100,30.04,10.0,Calm,Calm,-,N/A,,Scattered Clouds,0,2013-02-06 08:15:00
3:35 AM,46.4,44.6,93,30.04,10.0,Calm,Calm,-,N/A,,Scattered Clouds,0,2013-02-06 08:35:00
3:55 AM,44.6,44.6,100,30.04,10.0,Calm,Calm,-,N/A,,Clear,0,2013-02-06 08:55:00
4:15 AM,46.4,46.4,100,30.04,10.0,Calm,Calm,-,N/A,,Clear,0,2013-02-06 09:15:00
4:35 AM,46.4,46.4,100,30.05,10.0,Calm,Calm,-,N/A,,Clear,0,2013-02-06 09:35:00
4:55 AM,44.6,44.6,100,30.06,10.0,Calm,Calm,-,N/A,,Clear,0,2013-02-06 09:55:00
5:55 AM,42.8,42.8,100,30.07,10.0,Calm,Calm,-,N/A,,Clear,0,2013-02-06 10:55:00
6:15 AM,42.8,42.8,100,30.08,10.0,Calm,Calm,-,N/A,,Clear,0,2013-02-06 11:15:00
6:35 AM,42.8,42.8,100,30.09,10.0,Calm,Calm,-,N/A,,Clear,0,2013-02-06 11:35:00
6:55 AM,42.8,42.8,100,30.09,10.0,Calm,Calm,-,N/A,,Clear,0,2013-02-06 11:55:00
7:15 AM,42.8,42.8,100,30.11,10.0,Calm,Calm,-,N/A,,Clear,0,2013-02-06 12:15:00
7:35 AM,42.8,42.8,100,30.11,10.0,Calm,Calm,-,N/A,,Clear,0,2013-02-06 12:35:00
8:35 AM,48.2,48.2,100,30.13,10.0,Calm,Calm,-,N/A,,Clear,0,2013-02-06 13:35:00
8:55 AM,51.8,50.0,94,30.14,10.0,Calm,Calm,-,N/A,,Clear,0,2013-02-06 13:55:00
9:15 AM,55.4,50.0,82,30.14,10.0,NW,4.6,-,N/A,,Clear,310,2013-02-06 14:15:00
9:35 AM,59.0,50.0,72,30.15,10.0,NNW,4.6,-,N/A,,Clear,330,2013-02-06 14:35:00
9:55 AM,60.8,50.0,68,30.15,10.0,NNW,4.6,-,N/A,,Clear,340,2013-02-06 14:55:00
10:15 AM,62.6,48.2,59,30.15,10.0,NNW,3.5,-,N/A,,Clear,330,2013-02-06 15:15:00
10:35 AM,64.4,44.6,49,30.15,10.0,North,6.9,-,N/A,,Clear,360,2013-02-06 15:35:00
10:55 AM,66.2,44.6,46,30.16,10.0,North,4.6,-,N/A,,Clear,350,2013-02-06 15:55:00
11:15 AM,68.0,42.8,40,30.15,10.0,NW,4.6,-,N/A,,Clear,310,2013-02-06 16:15:00
11:55 AM,69.8,42.8,38,30.15,10.0,North,8.1,-,N/A,,Clear,350,2013-02-06 16:55:00
12:15 PM,69.8,42.8,38,30.14,10.0,North,6.9,-,N/A,,Clear,350,2013-02-06 17:15:00
12:35 PM,71.6,42.8,35,30.13,10.0,Calm,Calm,-,N/A,,Clear,0,2013-02-06 17:35:00
12:55 PM,71.6,42.8,35,30.12,10.0,NNW,5.8,-,N/A,,Clear,340,2013-02-06 17:55:00
1:15 PM,71.6,39.2,31,30.12,10.0,Calm,Calm,-,N/A,,Clear,0,2013-02-06 18:15:00
1:55 PM,71.6,41.0,33,30.10,10.0,Calm,Calm,-,N/A,,Clear,0,2013-02-06 18:55:00
2:15 PM,71.6,41.0,33,30.10,10.0,North,3.5,-,N/A,,Clear,350,2013-02-06 19:15:00
2:35 PM,73.4,37.4,27,30.09,10.0,Calm,Calm,-,N/A,,Clear,0,2013-02-06 19:35:00
3:15 PM,73.4,37.4,27,30.09,10.0,West,4.6,-,N/A,,Clear,280,2013-02-06 20:15:00
3:35 PM,73.4,37.4,27,30.09,10.0,Calm,Calm,-,N/A,,Clear,0,2013-02-06 20:35:00
3:55 PM,73.4,37.4,27,30.09,10.0,Calm,Calm,-,N/A,,Clear,0,2013-02-06 20:55:00
4:15 PM,73.4,37.4,27,30.09,10.0,WNW,3.5,-,N/A,,Clear,300,2013-02-06 21:15:00
4:35 PM,71.6,37.4,29,30.09,10.0,North,3.5,-,N/A,,Clear,350,2013-02-06 21:35:00
4:55 PM,71.6,37.4,29,30.09,10.0,Calm,Calm,-,N/A,,Clear,0,2013-02-06 21:55:00
5:15 PM,69.8,37.4,31,30.10,10.0,Calm,Calm,-,N/A,,Clear,0,2013-02-06 22:15:00
5:35 PM,69.8,39.2,33,30.11,10.0,Calm,Calm,-,N/A,,Clear,0,2013-02-06 22:35:00
5:55 PM,68.0,46.4,46,30.12,5.0,Calm,Calm,-,N/A,,Haze,0,2013-02-06 22:55:00
6:15 PM,64.4,44.6,49,30.12,10.0,Calm,Calm,-,N/A,,Clear,0,2013-02-06 23:15:00
6:35 PM,62.6,42.8,48,30.13,10.0,Calm,Calm,-,N/A,,Clear,0,2013-02-06 23:35:00
6:55 PM,60.8,44.6,55,30.14,10.0,Calm,Calm,-,N/A,,Clear,0,2013-02-06 23:55:00
7:15 PM,59.0,46.4,63,30.15,10.0,ESE,4.6,-,N/A,,Clear,110,2013-02-07 00:15:00
7:35 PM,60.8,51.8,72,30.16,10.0,Calm,Calm,-,N/A,,Clear,0,2013-02-07 00:35:00
7:55 PM,57.2,50.0,77,30.16,10.0,Calm,Calm,-,N/A,,Clear,0,2013-02-07 00:55:00
8:15 PM,53.6,46.4,77,30.16,10.0,Calm,Calm,-,N/A,,Clear,0,2013-02-07 01:15:00
8:35 PM,55.4,50.0,82,30.16,10.0,East,3.5,-,N/A,,Clear,90,2013-02-07 01:35:00
8:55 PM,53.6,46.4,77,30.16,10.0,Calm,Calm,-,N/A,,Clear,0,2013-02-07 01:55:00
9:15 PM,53.6,50.0,88,30.15,10.0,East,3.5,-,N/A,,Clear,90,2013-02-07 02:15:00
9:35 PM,53.6,50.0,88,30.16,10.0,Calm,Calm,-,N/A,,Clear,0,2013-02-07 02:35:00
9:55 PM,50.0,46.4,87,30.18,10.0,Calm,Calm,-,N/A,,Clear,0,2013-02-07 02:55:00
10:15 PM,50.0,46.4,87,30.19,10.0,Calm,Calm,-,N/A,,Clear,0,2013-02-07 03:15:00
10:35 PM,50.0,46.4,87,30.19,10.0,Calm,Calm,-,N/A,,Clear,0,2013-02-07 03:35:00
10:55 PM,48.2,46.4,93,30.18,10.0,Calm,Calm,-,N/A,,Clear,0,2013-02-07 03:55:00
11:15 PM,48.2,46.4,93,30.17,10.0,Calm,Calm,-,N/A,,Clear,0,2013-02-07 04:15:00
11:35 PM,46.4,46.4,100,30.17,10.0,Calm,Calm,-,N/A,,Clear,0,2013-02-07 04:35:00
11:55 PM,46.4,46.4,100,30.17,10.0,Calm,Calm,-,N/A,,Clear,0,2013-02-07 04:55:00